Location: Newark
(40.9833°N, 0.0333°W)
Time: 23:43:48
(UTC+00:00)

Transit 4A - Pass Details

Date: 29 October 2020
Orbit: 862 x 982 km, 66.8° (Epoch: 29 November)

Event Time Altitude Azimuth Distance (km) Brightness Sun altitude
Rises 00:16:26 0° 328° (NNW) 3,692 - -61.6°
Reaches altitude 10° 00:19:02 10° 326° (NW) 2,736 - -61.5°
Maximum altitude 00:25:24 70° 244° (WSW) 1,027 - -61.1°
Drops below altitude 10° 00:31:36 10° 162° (SSE) 2,666 - -60.6°
Sets 00:34:07 0° 160° (SSE) 3,591 - -60.4°
